Showing default

GONETS M 10 (M20), 40063

Orbit data source: Space-Track

GONETS M 10 (M20), 40063 is a payload satellite owned by Gonets (CIS) in LEO that was launched on Thu, 03 Jul 2014 UTC via an ROKOT launch vehicle from the Plesetsk Missile And Space Complex (PKMTR). Payload-class satellites include a variety of spacecraft equipped with specific instruments for various scientific and technological missions. These include communications satellites like Starlink; space stations such as the ISS; scientific satellites like the Hubble; Earth observation satellites from companies like Planet Labs, Umbra, and HawkEye 360; GPS; miniature CubeSats for education and research; and military/defense satellites.

Loading next visibility...
Identifier
40063, 2014-036C
Orbit
LEO
Country
Flag of CISCIS
Related business
Manufacturer
Resehetnev ISS
Mission
Operational Civil Communications
Bus & Motor
STRELA-3M, Unknown motor
Mass
280 kg wet, 280 kg dry
Launch date (UTC)
2014-07-03 (12 years ago)
Launch vehicle
ROKOT
Launch site
Plesetsk Missile And Space Complex (PKMTR)
Object type
Payload
Rocket body
Debris
Shape & HBR
Cyl + 1 Ant, 3.5 m
Radar Cross Section
1.798 m², Large (>1 m²)

Expand to show TLE details & history
Last TLE update: 8 hours ago

TLE from 8 hours ago
0 GONETS M 10 (M20)
1 40063U 14036C   26061.98013797  .00000008  00000-0 -14686-4 0  9994
2 40063  82.5145  13.6335 0022525  16.4477 343.7329 12.42942247529055
Epoch: 2026-03-02T23:31Z
TLE epoch observation values (Epoch: 2026-03-02T23:31:23.920Z)
Latitude
-0°
Longitude
-139.98194°
Altitude
1,479.833 km
Speed
7.131 km/s
True Right ascension
00h 54m 32s
True Declination
0° 00' 00"
Sunlit
Object was in daylight at epoch
Visualization orbit readout
Latitude
Unknown
Longitude
Unknown
Altitude
Unknown
Speed
Unknown
Apparent Right ascension
Unknown
Apparent Declination
Unknown
Sunlit
N/A
Visualization observer readout
Local Sidereal Time
11:08:55
Azimuth
Unknown
Elevation
Unknown
Doppler factor
Unknown
Orbital elements
Apogee altitude
1,509.232 km
Perigee altitude
1,473.78 km
Semi-major axis
7,869.643 km
Eccentricity
0.00225
Inclination
82.5145°
RAAN
13.6335°
Arg. of periapsis
16.4477°
True anomaly
343.6604°
Mean anomaly
343.7329°
Eccentric anomaly
343.69667°
Mean motion
3.10893 °/min
Orbital period
115.8 mins
BSTAR
-0.000014686
Loading maneuver chart data...
Computing Atmospheric mass density...
Loading historical data...
Loading historical data...
Loading historical data...
Loading historical data...
Loading historical data...
Loading historical data...
Loading historical data...
Other satellites on launch #36 in the year 2014 (2014-07-03 UTC)

Documentation

Showing up to 5 results
|